Printer-friendly version

IAU Minor Planet Center

Minor Planet Center

MPEC 2002-Y52 : 2001 MQ3

The following Minor Planet Electronic Circular may be linked-to from your own Web pages, but must not otherwise be redistributed electronically.


Read MPEC 2002-Y51 Read MPEC 2002-Y53


M.P.E.C. 2002-Y52                                Issued 2002 Dec. 30, 17:01 UT

     The Minor Planet Electronic Circulars contain information on unusual
         minor planets and routine data on comets.  They are published
   on behalf of Commission 20 of the International Astronomical Union by the
          Minor Planet Center, Smithsonian Astrophysical Observatory,
                          Cambridge, MA 02138, U.S.A.

             Prepared using the Tamkin Foundation Computer Network

                              MPC@CFA.HARVARD.EDU
          URL http://cfa-www.harvard.edu/iau/mpc.html  ISSN 1523-6714

                                   2001 MQ3

                           Revision to MPEC 2001-M28

Additional Observations:
     K01M03Q 3 1991 08 05.29051 21 41 33.40 -13 28 44.1                      675
     K01M03Q 3 1991 08 05.29676 21 41 33.71 -13 28 32.4                      675
     K01M03Q 3 1991 08 05.32638 21 41 35.10 -13 27 35.1                      675
     K01M03Q 3 1991 08 05.33263 21 41 35.44 -13 27 23.3                      675
     K01M03Q 3 1991 08 08.30850 21 44 36.81 -11 46 38.5                      675
     K01M03Q 3 1991 08 08.31406 21 44 37.20 -11 46 27.4                      675
     K01M03Q 3 1991 08 08.33767 21 44 38.16 -11 45 38.0                      675
     K01M03Q 3 1991 08 08.34323 21 44 38.50 -11 45 25.2                      675

Observer details:
675 Palomar Mountain.  Observers E. M. Shoemaker, C. S. Shoemaker, H. E. Holt,
    F. J. Mendez, C. M. Olmstead, L. A. Zimmerman.  Measurers A. Boattini,
    G. Forti, E. L. G. Bowell, L. Tesi, E. Bowell.  0.46-m f/2 Schmidt.

First and last observations above in comparison with prediction:
Residuals in seconds of arc (or two decimals in degrees), reference and Delta-T
910805 675 0.59+ 0.27+    910808 675 0.61+ 0.28+    MPO 20843   -0.15 day

Orbital elements:
2001 MQ3
Epoch 2002 Nov. 22.0 TT = JDT 2452600.5                 MPC
M 130.65358              (2000.0)            P               Q
n   0.29502794     Peri.   24.71158     +0.92813229     +0.36551334
a   2.2347414      Node   313.65658     -0.35568634     +0.81491485
e   0.4546002      Incl.    5.59214     -0.10980750     +0.44979305
P   3.34           H   19.1           G   0.15           U   1
Residuals in seconds of arc
910805 675  0.5+  1.1+    010730 704  0.2-  0.0     010828 185  0.5+  0.6+
910805 675  0.5+  0.6+    010731 670  0.3-  0.1+    010828 185  0.1+  0.1+
910805 675  0.2-  0.3-    010731 670  0.3-  0.4-    010828 185  0.0   0.2+
910805 675  0.4+  0.9-    010731 670  0.5+  0.5-    010828 046  0.0   0.2+
910808 675  0.8-  0.7-    010801 322  0.5-  0.7-    010828 046  0.4+  0.3+
910808 675  1.1+  1.1-    010801 322  0.3-  0.2-    010828 046  0.1-  0.3+
910808 675  1.0-  0.7-    010801 322  0.3-  0.8-    010828 046  0.2+  0.4+
910808 675  0.2+  0.5+    010807 608  0.4+  0.8+    010901 739  1.3+  0.6-
010619 644  0.6+  0.5+    010807 608  0.6+  0.1+    010901 739  1.4+  0.2-
010619 644  0.3+  0.5+    010807 413  0.1-  0.2-    010901 739 (2.4-  0.1-)
010619 644  0.8+  0.4+    010807 413  0.1-  0.2-    010903 151  0.1-  0.5+
010620 644  0.3-  0.5-    010807 413  0.0   0.2-    010903 151  0.1-  0.3+
010620 644  0.2-  0.6-    010807 608  0.5+  0.1+    010903 151  0.9+  0.2+
010620 644  0.2-  0.4-    010807 118  0.8+  0.2-    010905 739  0.5-  1.5-
010621 493  0.1-  0.2-    010807 118  0.0   0.2-    010905 739  1.2-  0.7-
010622 493  0.3+  0.1+    010807 118  0.3+  0.1-    010905 739  0.5+  0.3-
010622 493  0.3-  0.2-    010809 322  0.4+  0.4+    010915 644  1.1-  1.3+
010622 493  0.3+  0.1-    010809 322  0.1+  0.4-    010915 644  1.0-  1.1+
010622 493  0.2+  0.0     010809 322  0.1-  0.1-    010915 644  1.5-  1.2+
010622 644  0.0   0.3+    010811 151  0.3-  0.5+    010916 670  0.1+  0.0
010622 644  0.4-  0.4+    010811 151  0.5-  0.7+    010916 670  0.3+  0.0
010622 644  0.3-  0.1+    010811 151  0.1+  0.8+    010916 704  0.6-  0.4+
010622 428  0.9+  0.9-    010811 151  1.1-  0.6+    010916 704  0.4-  0.3+
010622 428  0.7+  0.0     010811 198  0.0   0.2+    010916 670  0.2-  0.0
010622 422  0.1-  0.4+    010812 198  0.1-  0.3+    010916 704  0.6-  0.4+
010622 422  0.1+  0.1+    010812 198  0.2-  0.0     010917 511  0.1+  0.1+
010622 422  0.3+  0.0     010813 215  0.2-  0.5+    010917 511  0.1+  0.4-
010625 422  0.1-  0.3+    010813 215  0.2+  0.4+    010917 511  0.1+  0.5-
010625 422  0.4+  0.1+    010813 215  0.1+  0.2+    010918 151  0.0   0.1-
010625 422  0.6+  0.0     010813 198  0.3-  0.1-    010918 151  0.4+  0.1+
010626 644  0.0   0.2+    010813 198  0.3-  0.1-    010918 151  0.4+  0.3-
010626 644  0.1+  0.3+    010813 198  0.2+  0.3+    010918 151  0.3+  0.2-
010626 644  0.0   0.2+    010816 704  0.3-  0.0     010918 151  0.4+  0.1-
010703 413  0.1+  0.0     010816 704  0.2-  0.1-    010918 151  0.3+  0.6-
010703 413  0.0   0.0     010816 704  0.3-  0.2-    010919 683 (3.1-  2.7-)
010703 413  0.1+  0.0     010816 704  0.2-  0.2+    010919 683 (3.7-  3.3-)
010704 413  0.2-  0.1+    010816 704  0.4-  0.2+    010920 683  0.2-  1.0+
010704 413  0.1-  0.1-    010817 739  0.1+  0.7+    010920 683  0.3+  1.3-
010704 413  0.1+  0.1+    010817 739  0.4-  0.1-    010920 683 (2.5+  5.3+)
010714 474  0.0   0.2-    010817 739  0.4-  0.4+    010920 118  0.0   0.4-
010714 474  0.1-  0.2-    010817 704  0.1+  0.2+    010920 118  0.6+  0.6-
010714 474  0.0   0.1-    010817 704  0.4-  1.3+    010920 118  0.1+  0.5-
010714 342  0.1-  0.6-    010817 704  1.6+  1.2-    010922 113  0.3-  0.1+
010714 342  0.8+  0.2+    010817 428  0.2-  0.8-    010922 113  0.5+  0.4+
010715 474  0.9-  0.2+    010818 428  0.7-  0.3-    010922 113  0.7+  1.2+
010715 474  0.9-  0.0     010818 428  0.3-  0.3+    010922 113  1.6+  1.4+
010715 474  0.5-  0.1+    010818 428  0.9-  0.3-    010922 113  0.5+  0.5+
010717 670  0.7+  0.9-    010819 704  0.0   0.0     010923 071  0.5+  1.2-
010717 670  0.2+  0.2-    010819 704  0.3-  0.1-    010923 071  0.4-  1.1-
010718 670  0.8+  0.2+    010819 704  0.4-  0.2+    010923 071  0.3-  0.9-
010718 670  0.4+  0.0     010819 704  0.2-  0.1+    010925 644  0.1-  1.5-
010719 322  0.5-  0.3-    010819 704  0.1-  0.2+    010925 644  0.1-  1.4-
010719 322  0.4+  0.2-    010822 342  0.4-  0.5-    010925 644  0.2-  1.5-
010719 322  0.2+  0.5-    010822 342  0.4-  0.4-    011006 644  0.4+  0.2+
010720 670  0.1-  0.0     010822 342  0.4-  0.1-    011006 644  0.2+  0.2+
010720 670  0.1-  0.0     010824 151  0.1+  0.2+    011006 644  0.0   0.1+
010724 360  0.1+  0.3+    010824 151  0.3+  0.2+    011011 691  0.3+  0.3+
010724 360  0.1-  0.0     010824 151  0.2+  0.9+    011011 691  0.1-  0.0
010724 360  0.1-  0.1+    010824 151  0.1+  0.8+    011011 691  0.1-  0.0
010725 474  0.1+  0.1-    010824 151  0.2-  0.5+    011014 151  0.1+  0.1+
010725 474  1.4+  0.5-    010824 151  0.1-  0.4+    011014 151  0.0   0.7-
010725 474  0.1+  0.0     010824 198  0.4+  0.4+    011014 151  1.0+  0.3+
010725 474  0.0   0.1-    010824 198  0.3+  0.5+    011014 151  0.4+  0.2-
010725 474  0.0   0.0     010825 670  0.5+  0.0     011014 151  0.3-  0.1-
010727 644 (1.0-  3.2-)   010825 670  0.1+  0.4+    011014 151  0.3+  0.0
010727 644 (1.2-  3.3-)   010825 185  0.2-  0.1-    011017 704  0.0   0.1+
010727 644 (1.0-  3.3-)   010825 185  0.5-  0.3-    011017 704  0.1-  0.1-
010730 739  0.6+  0.4-    010825 185  0.4-  0.1-    011017 704  0.2+  0.2-
010730 739  0.1-  1.5-    010826 185  0.1-  0.3+    011017 704  0.2+  0.3-
010730 739  0.0   0.0     010826 185  0.8-  0.3+    011017 704  0.0   0.4-
010730 739  0.2-  0.9+    010826 185  0.7-  0.1-    011018 360  0.7-  0.1-
010730 704  0.1-  0.6-    010828 185  0.1+  0.1+    011018 360  0.2-  0.3+
010730 704  0.1+  0.3-    010828 185  0.3-  0.1+    011018 360  0.1-  0.4+
010730 704  0.2-  0.1-    010828 185  0.2-  0.4+    011121 696  0.4+  0.2-
010730 704  0.0   0.4+    010828 185  0.2+  0.3+    011121 696  0.2+  0.4+

Gareth V. Williams           (C) Copyright 2002 MPC           M.P.E.C. 2002-Y52

Read MPEC 2002-Y51 Read MPEC 2002-Y53


Our Web policy. Index to the CBAT/MPC/ICQ pages.


Valid HTML 4.01!